Regional Weather Roundup
Issued by NWS

Home | Current Version | Previous Version | Text Only | Print | Product List | Glossary On
Versions: 1 2 3 4 5 6 7 8 9 10 11 12 13 14 15 16 17 18 19 20 21 22 23 24 25 26 27 28 29 30 31 32 33 34 35 36 37 38 39 40 41 42 43 44 45 46 47 48 49 50
000
ASUS43 KMKX 160211
RWRWI

WISCONSIN REGIONAL WEATHER ROUNDUP
NATIONAL WEATHER SERVICE MILWAUKEE/SULLIVAN WI
900 PM CDT MON SEP 15 2014

NOTE: "FAIR" INDICATES FEW OR NO CLOUDS BELOW 12,000 FEET WITH NO
SIGNIFICANT WEATHER AND/OR OBSTRUCTIONS TO VISIBILITY.

WIZ001-002-006>008-014>016-023>028-160300-
NORTHWEST WISCONSIN

CITY           SKY/WX    TMP DP  RH WIND       PRES   REMARKS
SUPERIOR ARPT  CLEAR     46  40  79 W6        30.16S
ASHLAND        CLEAR     43  38  82 SW7       30.16S
HAYWARD        CLEAR     41  38  89 CALM      30.18R
SIREN          CLEAR     44  41  88 CALM      30.20S
RICE LAKE      CLEAR     44  40  84 CALM      30.21R
LADYSMITH      CLEAR     44  41  90 CALM      30.20R
EAU CLAIRE     CLEAR     46  40  79 CALM      30.20R
MENOMONIE      CLEAR     49  41  72 SW5       30.21R
NEW RICHMOND   CLEAR     44  40  87 CALM      30.21S
OSCEOLA        CLEAR     44  44  97 CALM      30.23S
$$

WIZ003>005-009-010-017-018-160300-
NORTH CENTRAL WISCONSIN

CITY           SKY/WX    TMP DP  RH WIND       PRES   REMARKS
WOODRUFF       CLEAR     39  36  88 CALM      30.15S
RHINELANDER    CLEAR     40  36  86 NW3       30.16S
EAGLE RIVER    CLEAR     37  36  96 CALM      30.15R
LAND O LAKES   CLEAR     38  37  97 CALM      30.16R
PHILLIPS       CLEAR     39  38  94 CALM      30.16S
TOMAHAWK       CLEAR     37  36  93 CALM      30.17S
MEDFORD        CLEAR     40  38  92 CALM      30.18R
MERRILL        MOCLDY    45  39  80 CALM      30.17R
$$

WIZ029-030-035-036-043>047-160300-
CENTRAL WISCONSIN

CITY           SKY/WX    TMP DP  RH WIND       PRES   REMARKS
WAUSAU         CLEAR     48  40  73 NW3       30.15R
MOSINEE        CLEAR     46  39  76 NW6       30.17R
MARSHFIELD     CLEAR     46  39  76 NW5       30.17R
STEVENS POINT  CLEAR     48  39  70 NW3       30.17R
WAUPACA        CLEAR     52  47  84 W3        30.16R
WAUTOMA        CLEAR     46  46 100 CALM      30.17R
WISC RAPIDS    CLEAR     48  42  80 W3        30.18R
CAMP DOUGLAS   CLEAR     43  43 100 W7        30.18R
$$

WIZ011>013-019>022-031-037>040-048>050-160300-
NORTHEAST WISCONSIN

CITY           SKY/WX    TMP DP  RH WIND       PRES   REMARKS
ANTIGO         CLEAR     44  39  81 NW5       30.16R
STURGEON BAY   MOCLDY    52  46  82 SW3       30.12S
GREEN BAY      CLEAR     49  47  93 SW5       30.13R
MANITOWOC      CLEAR     50  48  93 W3        30.14R
APPLETON       PTCLDY    52  46  82 SW8       30.15R
CLINTONVILLE   CLEAR     50  45  81 NW3       30.14R
OSHKOSH        CLEAR     52  47  83 W3        30.14S
$$

WIZ032>034-041-042-053>061-160300-
SOUTHWEST WISCONSIN

CITY           SKY/WX    TMP DP  RH WIND       PRES   REMARKS
LA CROSSE      CLEAR     50  45  83 N3        30.21R
SPARTA         CLEAR     43  43  99 CALM      30.20R
VIROQUA        FAIR      47  47 100 W5        30.20R
BOSCOBEL       CLEAR     47  45  93 CALM      30.21R FOG
PRAIRIE DU CHI CLEAR     47  45  93 CALM      30.21R
PLATTEVILLE    FAIR      48  45  90 CALM      30.21R
$$

WIZ056-057-062-063-064-067-068-160300-
SOUTH CENTRAL WISCONSIN

CITY           SKY/WX    TMP DP  RH WIND       PRES   REMARKS
BARABOO/DELLS  CLEAR     48  45  88 CALM      30.17S
LONE ROCK      CLEAR     51  45  79 CALM      30.20R
WATERTOWN      FOG       43  43 100 CALM      30.16S VSB 3/4
MADISON        CLEAR     46  44  93 CALM      30.18R
MIDDLETON      FAIR      44  44  99 CALM      30.19R
MONROE         CLEAR     50  46  87 NW7       30.19R
JANESVILLE     CLEAR     48  46  93 CALM      30.17R
$$

WIZ051-052-058>065-066-070>072-160300-
SOUTHEAST WISCONSIN

CITY           SKY/WX    TMP DP  RH WIND       PRES   REMARKS
MILWAUKEE      CLEAR     50  48  93 W3        30.16R
WAUKESHA       CLEAR     45  45 100 W3        30.17R
MILWAUKEE/TIMM CLEAR     48  45  87 CALM      30.17R
RACINE         CLEAR     49  47  93 W6        30.17R
BURLINGTON     CLEAR     43  43  99 SW5       30.16R
KENOSHA        CLEAR     48  47  96 W3        30.16R FOG
FOND DU LAC    CLEAR     49  46  90 SW5       30.16R
SHEBOYGAN      CLEAR     46  45  96 SW5       30.15R
WEST BEND        N/A     45  43  93 CALM      30.16R FOG
JUNEAU         CLEAR     47  46  97 SW3       30.18R
$$

LSZ147-162-160300-
LAKE SUPERIOR

STATION/POSITION TIME  TEMP    WIND        PRES    WAVE
                       AIR SEA DIR/SP/G            HT/PER
                 (UTC) (F)     (DEG/KT/KT) (MB)    (FT/S)
W MID LAKE BUOY  0150   51 47  240/ 12/ 14 1019.7R   2/ 4
DEVILS ISLAND    0200   52     230/ 10/ 11 1020.6S
PORT WING        0100   51     200/  6/  8 1021.0S
SAXON HARBOR     0100   47     200/  3/  4 1020.7F
$$

LMZ867-665-643>646-160300-
LAKE MICHIGAN

STATION/POSITION TIME  TEMP    WIND        PRES    WAVE
                       AIR SEA DIR/SP/G            HT/PER
                 (UTC) (F)     (DEG/KT/KT) (MB)    (FT/S)
N MID LAKE BUOY  0150   56 58  360/ 14/ 16 1019.6S   1
NORTHPORT PIER   0100   53     220/  2/  3 1019.3R
KEWAUNEE LAKESHO 0100   53     290/  3/  4 1018.9R
SHEBOYGAN LAKESH 0200   53 49  270/  8/  9 1021.2R
PORT WASHINGTON  0100   52     290/  3/  4 1021.0R
ATWATER BUOY     0200   55     290/  8/ 10 1022.0R
MILWAUKEE LAKESH 0100   54     320/  3/  5   N/A
S MID LAKE BUOY  0150   57 64  350/ 12/ 14 1020.5R   2/ 4
KENOSHA   LAKESH 0200   53     320/  5/  7 1021.0R
$$

TC  - TEMPERATURE IN CELSIUS
VSB - VISIBILITY IN STATUTE MILES
WCI - WIND CHILL INDEX
HX  - HEAT INDEX



USA.gov is the U.S. government's official web portal to all federal, state and local government web resources and services.